Retour au catalogue

IRIDIUM 33 DEB

ActifPO
NORAD 39778·DEBRIS·🇺🇸 United States

Lancé Sep 14, 1997 depuis Baikonur Cosmodrome

Loading…

Prochains Passages (prochaines 24 heures)

TLE

FraisSource: Space-Track

Époque: Sep 13, 2026, 12:30 UTC

1 39778U 97051AAK 26256.52127101  .00001972  00000-0  44218-3 0  9997
2 39778  86.3726 283.7417 0007752 160.2751 199.8758 14.56133953646893

Suivez IRIDIUM 33 DEB en temps réel avec AllMySat

Download on the App Store